{"data":{"norad_id":58113,"intl_designator":"2023-161S","name":"STARLINK-30353","alt_names":[],"object_type":"PAYLOAD","status":"ACTIVE","operator":null,"country":"US","launch_date":"2023-10-21","launch_site_code":"AFWTR","launch_vehicle":null,"mission":null,"orbit_class":"UNKNOWN","rcs_meters":null,"size_class":null,"mass_kg":null,"dimensions":null,"purposes":["comms"],"wikipedia_slug":null,"has_3d_model":false,"image_url":null,"decayed_at":null,"tle_current":{"epoch":"2026-09-20T10:37:52.869792Z","epoch_age_seconds":145347,"freshness":"FRESH","line1":"1 58113U 23161S   26263.44297303 -.00001077  00000+0 -20773-4 0  9991","line2":"2 58113  53.1622 339.9079 0001060  79.2590 280.8532 15.34380127164258","mean_motion":15.34380127,"eccentricity":0.000106,"inclination_deg":53.1622,"raan_deg":339.9079,"arg_perigee_deg":79.259,"mean_anomaly_deg":280.8532,"bstar":-2.0773e-5,"rev_number":16425,"period_min":93.848973579674,"perigee_km":462.03717226206,"apogee_km":463.48744291527,"semimajor_km":6840.8993075887,"source":"CELESTRAK","updated_at":"2026-09-21T09:00:33.789339Z"}}}